Flag for Mexico Weather past 2 weeks in Tijuana, Baja California, Mexico

Now
58 °F

Passing clouds.


Feels Like: 56 °F
Forecast: 58 / 66 °F
Wind: 8 mph from West

Location: Brown Field Municipal Airport

Current Time: May 22, 2015 at 1:38:12 AM

Latest Report: May 22, 2015 at 12:53 AM


Visibility: 10 mi

Pressure: 30.01 "Hg

Humidity: 75%

Dew point: 50 °F

Location of TijuanaLocation

Historic Weather in Tijuana — Graph

°F

Tijuana temperature yesterday

Maximum temperature yesterday: 66 °F (at 11:53 AM)
Minimum temperature yesterday: 57 °F (at 4:53 AM)
Average temperature yesterday: 60 °F

Past Weeks' High & Low Weather Summary

 TemperatureHumidityPressure
High72 °F (May 11, 2:53 PM)100% (May 11, 4:53 AM)30.09 "Hg (May 11, 4:53 AM)
Low51 °F (May 8, 7:53 AM)45% (May 7, 12:53 PM)29.80 "Hg (May 15, 2:53 PM)
Average59 °F75%29.96 "Hg
* Reported May 6 11:02 PM — May 21 11:53 PM, Tijuana, Weather by CustomWeather, © 2015

Note: Actual official high and low records may vary slightly from our data, if they occured in-between our weather recording intervals... More about our weather records

Advertising

Tijuana weather history for previous 24 hours

 ConditionsComfort  
Time TempWeatherWind HumidityBarometerVisibility
11:53 PM
Thu, May 21
58 °FOvercast.8 mph75%30.01 "Hg10 mi
10:53 PM58 °FPassing clouds.10 mph78%30.01 "Hg10 mi
9:53 PM58 °FOvercast.10 mph81%30.01 "Hg10 mi
8:53 PM59 °FPassing clouds.5 mph75%30.00 "Hg10 mi
8:00 PM59 °FMostly cloudy.8 mph72%30.00 "Hg10 mi
6:53 PM60 °FPartly sunny.10 mph67%29.98 "Hg10 mi
5:53 PM62 °FPartly sunny.13 mph62%29.96 "Hg10 mi
4:53 PM64 °FOvercast.12 mph58%29.96 "Hg10 mi
3:53 PM62 °FMostly cloudy.10 mph58%29.97 "Hg10 mi
2:53 PM64 °FPartly sunny.10 mph56%29.97 "Hg10 mi
2:00 PM64 °FBroken clouds.13 mph58%29.99 "Hg10 mi
12:53 PM63 °FOvercast.17 mph58%29.99 "Hg10 mi
11:53 AM66 °FBroken clouds.8 mph50%29.99 "Hg10 mi
10:53 AM62 °FMore clouds than sun.8 mph60%29.99 "Hg10 mi
9:53 AM60 °FMostly cloudy.8 mph69%29.98 "Hg10 mi
9:00 AM59 °FCloudy.10 mph72%29.98 "Hg10 mi
7:53 AM58 °FCloudy.5 mph81%29.98 "Hg10 mi
6:53 AM58 °FMore clouds than sun.No wind78%29.96 "Hg10 mi
5:53 AM58 °FOvercast.5 mph78%29.95 "Hg10 mi
4:53 AM57 °FMostly cloudy.6 mph81%29.95 "Hg10 mi
4:04 AM58 °FMostly cloudy.7 mph75%29.96 "Hg10 mi
3:53 AM58 °FMostly cloudy.6 mph75%29.95 "Hg10 mi
2:53 AM58 °FOvercast.3 mph75%29.96 "Hg10 mi
1:53 AM58 °FOvercast.No wind75%29.97 "Hg10 mi
Weather by CustomWeather, © 2015

See weather overviewHow to use our weather pages